| time (UTC) | temp C | wind direction | speed KPH | gust KPH | rain 1hr cm | rain 24hr cm | rain mn cm | humidity % | barometer mb |
| 20260504004501 | 13 | 233 | 3.2 | 8.0 | 0.00 | 0.00 | 0.00 | 36 | 1009.8 |
| 20260504004001 | 13 | 237 | 3.2 | 8.0 | 0.00 | 0.00 | 0.00 | 36 | 1009.8 |
| 20260504003504 | 13 | 236 | 1.6 | 6.4 | 0.00 | 0.00 | 0.00 | 35 | 1009.7 |
| 20260504003005 | 14 | 230 | 1.6 | 6.4 | 0.00 | 0.00 | 0.00 | 35 | 1009.6 |
| 20260504002502 | 14 | 236 | 3.2 | 6.4 | 0.00 | 0.00 | 0.00 | 34 | 1009.5 |
| 20260504002002 | 14 | 213 | 3.2 | 6.4 | 0.00 | 0.00 | 0.00 | 34 | 1009.4 |
| 20260504001502 | 14 | 241 | 3.2 | 8.0 | 0.00 | 0.00 | 0.00 | 34 | 1009.4 |
| 20260504001003 | 15 | 237 | 3.2 | 9.7 | 0.00 | 0.00 | 0.00 | 33 | 1009.2 |
| 20260504000502 | 15 | 248 | 4.8 | 9.7 | 0.00 | 0.00 | 0.00 | 33 | 1009.0 |
| 20260504000002 | 15 | 227 | 4.8 | 14.5 | 0.00 | 0.00 | 0.00 | 32 | 1009.0 |
| 20260503235502 | 15 | 241 | 3.2 | 14.5 | 0.00 | 0.00 | 0.00 | 32 | 1009.0 |
| 20260503235002 | 15 | 221 | 3.2 | 9.7 | 0.00 | 0.00 | 0.00 | 32 | 1009.0 |
| 20260503234502 | 15 | 289 | 4.8 | 14.5 | 0.00 | 0.00 | 0.00 | 32 | 1009.0 |
| 20260503234003 | 15 | 266 | 4.8 | 16.1 | 0.00 | 0.00 | 0.00 | 31 | 1009.1 |
| 20260503233818 | 15 | 252 | 6.4 | 14.5 | 0.00 | 0.00 | 0.00 | 30 | 1008.9 |
| 20260503233528 | 15 | 282 | 6.4 | 16.1 | 0.00 | 0.00 | 0.00 | 31 | 1009.0 |
| 20260503232502 | 15 | 247 | 6.4 | 20.9 | 0.00 | 0.00 | 0.00 | 30 | 1008.9 |
| 20260503232002 | 15 | 248 | 6.4 | 20.9 | 0.00 | 0.00 | 0.00 | 31 | 1008.9 |
| 20260503231503 | 16 | 273 | 6.4 | 16.1 | 0.00 | 0.00 | 0.00 | 30 | 1008.8 |
| 20260503231003 | 16 | 271 | 8.0 | 19.3 | 0.00 | 0.00 | 0.00 | 29 | 1008.8 |
| 20260503230501 | 16 | 264 | 6.4 | 19.3 | 0.00 | 0.00 | 0.00 | 29 | 1008.7 |
| 20260503230002 | 16 | 205 | 6.4 | 22.5 | 0.00 | 0.00 | 0.00 | 29 | 1008.6 |
| 20260503225503 | 16 | 310 | 6.4 | 22.5 | 0.00 | 0.00 | 0.00 | 30 | 1008.6 |
| 20260503225003 | 16 | 246 | 8.0 | 20.9 | 0.00 | 0.00 | 0.00 | 30 | 1008.6 |
| 20260503224502 | 16 | 198 | 8.0 | 20.9 | 0.00 | 0.00 | 0.00 | 29 | 1008.6 |
| 20260503224001 | 16 | 277 | 6.4 | 17.7 | 0.00 | 0.00 | 0.00 | 29 | 1008.6 |
| 20260503223503 | 16 | 227 | 6.4 | 17.7 | 0.00 | 0.00 | 0.00 | 30 | 1008.5 |
| 20260503223002 | 16 | 302 | 8.0 | 17.7 | 0.00 | 0.00 | 0.00 | 30 | 1008.4 |
| 20260503222502 | 16 | 306 | 8.0 | 20.9 | 0.00 | 0.00 | 0.00 | 30 | 1008.4 |
| 20260503222003 | 16 | 234 | 8.0 | 22.5 | 0.00 | 0.00 | 0.00 | 29 | 1008.5 |
| 20260503221503 | 16 | 277 | 8.0 | 25.7 | 0.00 | 0.00 | 0.00 | 29 | 1008.5 |
| 20260503221001 | 16 | 275 | 8.0 | 25.7 | 0.00 | 0.00 | 0.00 | 30 | 1008.5 |
| 20260503220501 | 16 | 287 | 9.7 | 24.1 | 0.00 | 0.00 | 0.00 | 31 | 1008.5 |
| 20260503220001 | 16 | 311 | 9.7 | 20.9 | 0.00 | 0.00 | 0.00 | 30 | 1008.4 |
| 20260503215502 | 16 | 261 | 9.7 | 22.5 | 0.00 | 0.00 | 0.00 | 30 | 1008.6 |
| 20260503215003 | 16 | 240 | 9.7 | 22.5 | 0.00 | 0.00 | 0.00 | 31 | 1008.7 |
| 20260503214503 | 16 | 319 | 9.7 | 25.7 | 0.00 | 0.00 | 0.00 | 32 | 1008.5 |
| 20260503214003 | 16 | 237 | 11.3 | 25.7 | 0.00 | 0.00 | 0.00 | 33 | 1008.5 |
| 20260503213743 | 16 | 284 | 11.3 | 27.4 | 0.00 | 0.00 | 0.00 | 31 | 1008.5 |
| 20260503213001 | 16 | 329 | 11.3 | 27.4 | 0.00 | 0.00 | 0.00 | 31 | 1008.5 |
| 20260503212501 | 16 | 319 | 12.9 | 30.6 | 0.00 | 0.00 | 0.00 | 30 | 1008.5 |
| 20260503212001 | 16 | 276 | 12.9 | 30.6 | 0.00 | 0.00 | 0.00 | 29 | 1008.5 |
| 20260503211502 | 16 | 279 | 11.3 | 29.0 | 0.00 | 0.00 | 0.00 | 31 | 1008.5 |
| 20260503211245 | 16 | 269 | 12.9 | 29.0 | 0.00 | 0.00 | 0.00 | 30 | 1008.5 |
| 20260503210500 | 16 | 13 | 12.9 | 32.2 | 0.00 | 0.00 | 0.00 | 29 | 1008.4 |
| 20260503210001 | 16 | 299 | 9.7 | 32.2 | 0.00 | 0.00 | 0.00 | 30 | 1008.4 |
| 20260503205500 | 16 | 265 | 9.7 | 29.0 | 0.00 | 0.00 | 0.00 | 31 | 1008.3 |
| 20260503205001 | 16 | 327 | 9.7 | 29.0 | 0.00 | 0.00 | 0.00 | 29 | 1008.3 |
| 20260503204502 | 16 | 329 | 11.3 | 25.7 | 0.00 | 0.00 | 0.00 | 31 | 1008.2 |
| 20260503204002 | 16 | 320 | 12.9 | 24.1 | 0.00 | 0.00 | 0.00 | 32 | 1008.2 |
| 20260503203750 | 16 | 325 | 11.3 | 30.6 | 0.00 | 0.00 | 0.00 | 31 | 1008.1 |
| 20260503203001 | 16 | 312 | 11.3 | 30.6 | 0.00 | 0.00 | 0.00 | 30 | 1008.2 |
| 20260503202746 | 16 | 306 | 12.9 | 30.6 | 0.00 | 0.00 | 0.00 | 30 | 1008.5 |
| 20260503202003 | 16 | 302 | 11.3 | 25.7 | 0.00 | 0.00 | 0.00 | 32 | 1008.5 |
| 20260503201502 | 16 | 315 | 12.9 | 30.6 | 0.00 | 0.00 | 0.00 | 32 | 1008.6 |
| 20260503201003 | 16 | 298 | 12.9 | 30.6 | 0.00 | 0.00 | 0.00 | 30 | 1008.6 |
| 20260503200502 | 16 | 277 | 11.3 | 27.4 | 0.00 | 0.00 | 0.00 | 33 | 1008.6 |
| 20260503200002 | 16 | 273 | 9.7 | 24.1 | 0.00 | 0.00 | 0.00 | 32 | 1008.6 |
| 20260503195503 | 16 | 277 | 9.7 | 24.1 | 0.00 | 0.00 | 0.00 | 35 | 1008.6 |
| 20260503195004 | 15 | 284 | 9.7 | 20.9 | 0.00 | 0.00 | 0.00 | 32 | 1008.6 |
| 20260503194502 | 15 | 325 | 11.3 | 30.6 | 0.00 | 0.00 | 0.00 | 34 | 1008.6 |
| 20260503194002 | 15 | 24 | 12.9 | 30.6 | 0.00 | 0.00 | 0.00 | 34 | 1008.7 |
| 20260503193503 | 15 | 336 | 11.3 | 29.0 | 0.00 | 0.00 | 0.00 | 32 | 1008.8 |
| 20260503193003 | 15 | 283 | 11.3 | 29.0 | 0.00 | 0.00 | 0.00 | 32 | 1008.8 |
| 20260503192500 | 15 | 263 | 11.3 | 29.0 | 0.00 | 0.00 | 0.00 | 34 | 1008.8 |
| 20260503191949 | 15 | 274 | 9.7 | 24.1 | 0.00 | 0.00 | 0.00 | 33 | 1009.0 |
| 20260503191439 | 15 | 321 | 8.0 | 24.1 | 0.00 | 0.00 | 0.00 | 33 | 1009.0 |
| 20260503190938 | 15 | 287 | 8.0 | 22.5 | 0.00 | 0.00 | 0.00 | 34 | 1009.0 |
| 20260503190438 | 15 | 275 | 12.9 | 35.4 | 0.00 | 0.00 | 0.00 | 33 | 1009.0 |
| 20260503185938 | 15 | 301 | 12.9 | 35.4 | 0.00 | 0.00 | 0.00 | 33 | 1009.0 |
| 20260503185437 | 15 | 306 | 9.7 | 32.2 | 0.00 | 0.00 | 0.00 | 34 | 1009.1 |
| 20260503184934 | 15 | 263 | 9.7 | 20.9 | 0.00 | 0.00 | 0.00 | 34 | 1009.3 |
| 20260503184432 | 15 | 325 | 11.3 | 30.6 | 0.00 | 0.00 | 0.00 | 35 | 1009.4 |
| 20260503183932 | 15 | 305 | 9.7 | 30.6 | 0.00 | 0.00 | 0.00 | 35 | 1009.4 |
| 20260503183433 | 14 | 300 | 11.3 | 30.6 | 0.00 | 0.00 | 0.00 | 35 | 1009.4 |
| 20260503182932 | 14 | 249 | 14.5 | 30.6 | 0.00 | 0.00 | 0.00 | 35 | 1009.5 |
| 20260503182430 | 14 | 315 | 14.5 | 33.8 | 0.00 | 0.00 | 0.00 | 36 | 1009.6 |
| 20260503181932 | 14 | 9 | 11.3 | 33.8 | 0.00 | 0.00 | 0.00 | 35 | 1009.5 |
| 20260503181429 | 14 | 304 | 11.3 | 27.4 | 0.00 | 0.00 | 0.00 | 38 | 1009.5 |
| 20260503180923 | 13 | 307 | 11.3 | 25.7 | 0.00 | 0.00 | 0.00 | 37 | 1009.6 |
| 20260503180413 | 13 | 299 | 11.3 | 25.7 | 0.00 | 0.00 | 0.00 | 37 | 1009.5 |
| 20260503175911 | 13 | 280 | 11.3 | 22.5 | 0.00 | 0.00 | 0.00 | 37 | 1009.6 |
| 20260503175402 | 13 | 253 | 11.3 | 29.0 | 0.00 | 0.00 | 0.00 | 38 | 1009.6 |
| 20260503174902 | 13 | 295 | 14.5 | 32.2 | 0.00 | 0.00 | 0.00 | 39 | 1009.6 |
| 20260503174404 | 13 | 316 | 16.1 | 32.2 | 0.00 | 0.00 | 0.00 | 38 | 1009.5 |
| 20260503173903 | 13 | 334 | 17.7 | 33.8 | 0.00 | 0.00 | 0.00 | 38 | 1009.6 |
| 20260503173402 | 13 | 9 | 14.5 | 33.8 | 0.00 | 0.00 | 0.00 | 39 | 1009.6 |
| 20260503172901 | 13 | 315 | 11.3 | 24.1 | 0.00 | 0.00 | 0.00 | 40 | 1009.6 |
| 20260503172402 | 13 | 287 | 12.9 | 30.6 | 0.00 | 0.00 | 0.00 | 38 | 1009.5 |
| 20260503171901 | 13 | 263 | 11.3 | 30.6 | 0.00 | 0.00 | 0.00 | 37 | 1009.6 |
| 20260503171402 | 13 | 290 | 11.3 | 24.1 | 0.00 | 0.00 | 0.00 | 40 | 1009.7 |
| 20260503170902 | 13 | 281 | 12.9 | 24.1 | 0.00 | 0.00 | 0.00 | 40 | 1009.8 |
| 20260503170402 | 13 | 323 | 14.5 | 25.7 | 0.00 | 0.00 | 0.00 | 39 | 1009.9 |
| 20260503150902 | 11 | 278 | 9.7 | 25.7 | 0.00 | 0.00 | 0.00 | 42 | 1010.0 |
| 20260503150402 | 12 | 298 | 11.3 | 27.4 | 0.00 | 0.00 | 0.00 | 40 | 1010.2 |
| 20260503150148 | 12 | 311 | 14.5 | 38.6 | 0.00 | 0.00 | 0.00 | 40 | 1010.1 |
| 20260503131402 | 9 | 290 | 12.9 | 25.7 | 0.00 | 0.00 | 0.00 | 53 | 1010.4 |
| 20260503130902 | 9 | 330 | 11.3 | 25.7 | 0.00 | 0.00 | 0.00 | 53 | 1010.4 |
| 20260503130403 | 9 | 10 | 9.7 | 25.7 | 0.00 | 0.00 | 0.00 | 53 | 1010.4 |
| 20260503130143 | 9 | 293 | 11.3 | 20.9 | 0.00 | 0.00 | 0.00 | 53 | 1010.2 |
| 20260503110401 | 8 | 348 | 9.7 | 24.1 | 0.00 | 0.00 | 0.00 | 54 | 1009.4 |
| 20260503090402 | 9 | 42 | 8.0 | 22.5 | 0.00 | 0.00 | 0.00 | 52 | 1008.0 |
| 20260503081342 | 10 | 344 | 6.4 | 17.7 | 0.00 | 0.00 | 0.00 | 52 | 1007.9 |
| 20260503080829 | 10 | 331 | 4.8 | 17.7 | 0.00 | 0.00 | 0.00 | 50 | 1007.9 |
| 20260503080330 | 10 | 13 | 6.4 | 25.7 | 0.00 | 0.00 | 0.00 | 51 | 1007.9 |
| 20260503072829 | 10 | 322 | 6.4 | 19.3 | 0.00 | 0.00 | 0.00 | 48 | 1008.0 |
| 20260503072329 | 10 | 315 | 6.4 | 20.9 | 0.00 | 0.00 | 0.00 | 48 | 1008.0 |
| 20260503072116 | 10 | 350 | 8.0 | 22.5 | 0.00 | 0.00 | 0.00 | 48 | 1007.9 |
| 20260503071328 | 10 | 342 | 6.4 | 22.5 | 0.00 | 0.00 | 0.00 | 48 | 1007.9 |
| 20260503070828 | 11 | 355 | 6.4 | 20.9 | 0.00 | 0.00 | 0.00 | 48 | 1007.9 |
| 20260503070329 | 11 | 331 | 8.0 | 19.3 | 0.00 | 0.00 | 0.00 | 48 | 1007.8 |
| 20260503060330 | 11 | 57 | 8.0 | 19.3 | 0.00 | 0.00 | 0.00 | 46 | 1007.9 |
| 20260503060110 | 11 | 323 | 8.0 | 19.3 | 0.00 | 0.00 | 0.00 | 45 | 1008.2 |
| 20260503054329 | 11 | 11 | 8.0 | 25.7 | 0.00 | 0.00 | 0.00 | 46 | 1008.0 |
| 20260503053829 | 11 | 325 | 8.0 | 19.3 | 0.00 | 0.00 | 0.00 | 45 | 1008.0 |
| 20260503053331 | 11 | 9 | 8.0 | 24.1 | 0.00 | 0.00 | 0.00 | 46 | 1008.0 |
| 20260503052830 | 12 | 63 | 9.7 | 24.1 | 0.00 | 0.00 | 0.00 | 44 | 1008.1 |
| 20260503052611 | 12 | 27 | 8.0 | 22.5 | 0.00 | 0.00 | 0.00 | 45 | 1008.1 |
| 20260503051831 | 12 | 342 | 6.4 | 22.5 | 0.00 | 0.00 | 0.00 | 44 | 1008.1 |
| 20260503051330 | 12 | 54 | 6.4 | 17.7 | 0.00 | 0.00 | 0.00 | 45 | 1008.4 |
| 20260503050830 | 12 | 325 | 4.8 | 16.1 | 0.00 | 0.00 | 0.00 | 43 | 1008.4 |
| 20260503050330 | 12 | 34 | 3.2 | 14.5 | 0.00 | 0.00 | 0.00 | 45 | 1008.6 |
| 20260503045831 | 12 | 345 | 4.8 | 14.5 | 0.00 | 0.00 | 0.00 | 46 | 1008.5 |
| 20260503045330 | 12 | 347 | 4.8 | 16.1 | 0.00 | 0.00 | 0.00 | 45 | 1008.6 |
| 20260503044830 | 12 | 342 | 4.8 | 16.1 | 0.00 | 0.00 | 0.00 | 45 | 1008.6 |
| 20260503044330 | 12 | 40 | 4.8 | 16.1 | 0.00 | 0.00 | 0.00 | 43 | 1008.8 |
| 20260503044113 | 12 | 11 | 6.4 | 19.3 | 0.00 | 0.00 | 0.00 | 45 | 1008.7 |
| 20260503043331 | 12 | 322 | 6.4 | 19.3 | 0.00 | 0.00 | 0.00 | 44 | 1008.6 |
| 20260503042830 | 12 | 342 | 6.4 | 16.1 | 0.00 | 0.00 | 0.00 | 43 | 1008.5 |
| 20260503042330 | 12 | 333 | 6.4 | 19.3 | 0.00 | 0.00 | 0.00 | 43 | 1008.6 |
| 20260503041830 | 12 | 65 | 6.4 | 22.5 | 0.00 | 0.00 | 0.00 | 44 | 1008.4 |
| 20260503041330 | 12 | 24 | 8.0 | 22.5 | 0.00 | 0.00 | 0.00 | 43 | 1008.5 |
| 20260503040830 | 12 | 27 | 6.4 | 17.7 | 0.00 | 0.00 | 0.00 | 43 | 1008.5 |
| 20260503040331 | 12 | 0 | 6.4 | 17.7 | 0.00 | 0.00 | 0.00 | 43 | 1008.6 |
| 20260503035830 | 12 | 348 | 6.4 | 16.1 | 0.00 | 0.00 | 0.00 | 45 | 1008.6 |
| 20260503035330 | 13 | 340 | 4.8 | 16.1 | 0.00 | 0.00 | 0.00 | 44 | 1008.6 |
| 20260503035111 | 13 | 347 | 4.8 | 14.5 | 0.00 | 0.00 | 0.00 | 45 | 1008.5 |
| 20260503034331 | 13 | 13 | 6.4 | 20.9 | 0.00 | 0.00 | 0.00 | 44 | 1008.6 |
| 20260503033829 | 13 | 23 | 8.0 | 20.9 | 0.00 | 0.00 | 0.00 | 42 | 1008.7 |
| 20260503033403 | 13 | 349 | 6.4 | 16.1 | 0.00 | 0.00 | 0.00 | 45 | 1008.5 |
| 20260503033354 | 13 | 39 | 6.4 | 19.3 | 0.00 | 0.00 | 0.00 | 43 | 1008.6 |
| 20260503032330 | 13 | 52 | 4.8 | 14.5 | 0.00 | 0.00 | 0.00 | 44 | 1008.5 |
| 20260503032115 | 13 | 67 | 4.8 | 14.5 | 0.00 | 0.00 | 0.00 | 42 | 1008.5 |
| 20260503031330 | 13 | 50 | 3.2 | 8.0 | 0.00 | 0.00 | 0.00 | 45 | 1008.5 |
| 20260503030830 | 13 | 5 | 3.2 | 14.5 | 0.00 | 0.00 | 0.00 | 46 | 1008.5 |
| 20260503030330 | 13 | 51 | 4.8 | 19.3 | 0.00 | 0.00 | 0.00 | 44 | 1008.5 |
| 20260503025832 | 13 | 322 | 4.8 | 19.3 | 0.00 | 0.00 | 0.00 | 42 | 1008.5 |
| 20260503025331 | 13 | 25 | 4.8 | 19.3 | 0.00 | 0.00 | 0.00 | 43 | 1008.5 |
| 20260503024830 | 13 | 346 | 4.8 | 19.3 | 0.00 | 0.00 | 0.00 | 43 | 1008.6 |
| 20260503024616 | 13 | 336 | 4.8 | 19.3 | 0.00 | 0.00 | 0.00 | 43 | 1008.7 |
| 20260503023830 | 13 | 38 | 4.8 | 16.1 | 0.00 | 0.00 | 0.00 | 44 | 1008.7 |
| 20260503023330 | 13 | 33 | 4.8 | 14.5 | 0.00 | 0.00 | 0.00 | 44 | 1008.4 |
| 20260503022901 | 13 | 338 | 6.4 | 20.9 | 0.00 | 0.00 | 0.00 | 44 | 1008.3 |
| 20260503022850 | 13 | 30 | 4.8 | 20.9 | 0.00 | 0.00 | 0.00 | 44 | 1008.4 |
| 20260503021831 | 13 | 309 | 6.4 | 19.3 | 0.00 | 0.00 | 0.00 | 44 | 1008.5 |
| 20260503021328 | 13 | 346 | 6.4 | 19.3 | 0.00 | 0.00 | 0.00 | 43 | 1008.5 |
| 20260503021110 | 13 | 5 | 6.4 | 17.7 | 0.00 | 0.00 | 0.00 | 44 | 1008.6 |
| 20260503020329 | 13 | 324 | 6.4 | 16.1 | 0.00 | 0.00 | 0.00 | 44 | 1008.7 |
| 20260503015829 | 13 | 40 | 6.4 | 16.1 | 0.00 | 0.00 | 0.00 | 44 | 1008.7 |
| 20260503015329 | 13 | 11 | 6.4 | 20.9 | 0.00 | 0.00 | 0.00 | 43 | 1008.7 |
| 20260503014830 | 13 | 38 | 8.0 | 20.9 | 0.00 | 0.00 | 0.00 | 42 | 1008.6 |
| 20260503014324 | 13 | 350 | 8.0 | 17.7 | 0.00 | 0.00 | 0.00 | 44 | 1008.7 |
| 20260503014055 | 13 | 47 | 6.4 | 20.9 | 0.00 | 0.00 | 0.00 | 43 | 1008.7 |
| 20260503013304 | 13 | 297 | 6.4 | 22.5 | 0.00 | 0.00 | 0.00 | 43 | 1008.7 |
| 20260503012806 | 14 | 20 | 6.4 | 22.5 | 0.00 | 0.00 | 0.00 | 42 | 1008.7 |
| 20260503012306 | 14 | 17 | 8.0 | 25.7 | 0.00 | 0.00 | 0.00 | 43 | 1008.6 |
| 20260503011804 | 14 | 0 | 8.0 | 25.7 | 0.00 | 0.00 | 0.00 | 41 | 1008.6 |
| 20260503011306 | 14 | 5 | 6.4 | 24.1 | 0.00 | 0.00 | 0.00 | 43 | 1008.6 |
| 20260503010805 | 14 | 9 | 6.4 | 20.9 | 0.00 | 0.00 | 0.00 | 45 | 1008.5 |
| 20260503010305 | 14 | 47 | 6.4 | 19.3 | 0.00 | 0.00 | 0.00 | 45 | 1008.5 |
| 20260503005804 | 14 | 330 | 4.8 | 12.9 | 0.00 | 0.00 | 0.00 | 45 | 1008.4 |
| 20260503005305 | 14 | 311 | 6.4 | 16.1 | 0.00 | 0.00 | 0.00 | 45 | 1008.4 |